Weather in Dubrovo

Russia / Perm Krai     57°42′19″N   54°59′48″E
temp.,
°C
wind,
m/s
gust,
m/s
humid.,
%
clouds,
%
prec.,
mm/h
press.,
hPa
HPBL,
m
28 february, sun
sun2823:00−14e51094100 0.8 1007517
02:00−16ene4895100 0.3 1007411
05:00−17ene599499 0.4 1007436
08:00−17ne5995100 0.3 1008453
11:00−16ne5992100 0.6 1008493
14:00−14ne5890100 0.1 1009583
17:00−14ne5891100 0.3 1010594
20:00−16nne489598 0.1 1012333
1 march, mon
mon123:00−19ne379890 0.1 1014150
02:00−21nne359969 0.0 101590
05:00−21nne359973 0.0 101794
08:00−22nne239985 0.0 101850
11:00−18nne249486 0.0 1019231
14:00−13nne128593 0.0 1018399
17:00−12nw118496 0.0 1018435
20:00−17sw229585 0.0 101620
2 march, tue
tue223:00−19ssw349748 0.0 101669
02:00−18ssw499862 0.0 1013223
05:00−18ssw5119481 0.0 1011314
08:00−18s61294100 0.0 1007373
11:00−16s61294100 0.4 1005427
14:00−13s61293100 0.6 1003520
17:00−12s51093100 1.1 1002597
20:00−11s41094100 0.6 1000559
3 march, wed
wed323:00−11s3995100 1.1 1000427
02:00−11sse2796100 0.6 999289
05:00−11sse2496100 1.1 998154
08:00−11s1196100 0.5 99826
11:00−9wsw1292100 0.6 998220
14:00−5wnw2388100 0.1 998429
17:00−4wnw2494100 0.4 998388
20:00−8nnw4119294 0.3 1000444
4 march, thu
thu423:00−9nw289695 0.4 1002284
02:00−13wnw349632 0.0 100289
05:00−13wnw239658 0.1 100365
08:00−14wnw379579 0.0 1004151
11:00−11w369249 0.0 1004272
14:00−8wsw468880 0.0 1004587
17:00−7sw598890 0.1 1002769
20:00−8ssw71493100 0.3 999687